Location: Wildcat Hills Observatory
(41.6350°N, 103.6812°W)
Time: 08:53:42
(UTC-06:00)

Daily predictions for brighter satellites

Satellite Brightness Start Highest point End
(mag) Time Altitude Azimuth Time Altitude Azimuth Time Altitude Azimuth
BREEZE-M DEB (TANK) 3.7 19:55:19 10° SW 19:59:14 67° SE 20:13:43 10° ENE
Cosmos 2219 Rocket 2.6 20:04:28 10° S 20:09:41 39° ESE 20:14:54 10° NE
Cosmos 2237 Rocket 3.4 20:06:41 10° SE 20:10:32 19° E 20:14:22 10° NE
Cosmos 1805 Rocket 3.5 20:07:09 10° N 20:11:30 70° E 20:15:49 10° SSE
Cosmos 2154 Rocket 4.1 20:09:50 10° SSE 20:15:56 56° E 20:22:00 10° NNE
YAOGAN 6 3.1 20:13:57 10° SE 20:17:20 41° ENE 20:20:48 10° N
Cosmos 1328 Rocket 4.5 20:14:07 10° SSE 20:17:53 28° E 20:21:41 10° NNE
Cosmos 2278 Rocket 3.4 20:14:07 10° N 20:18:52 27° NE 20:23:35 10° ESE
Cosmos 2184 Rocket 4.2 20:13:19 10° S 20:19:28 78° W 20:25:40 10° N
Cosmos 1437 3.5 20:16:53 10° SSW 20:20:00 55° WNW 20:23:10 10° N
Resurs 01 Rocket 2.1 20:17:30 10° SE 20:21:42 43° ENE 20:25:54 10° N
Cosmos 2251 Rocket 3.6 20:18:49 10° NNW 20:24:13 74° ENE 20:29:34 10° SSE
Cosmos 44 Rocket 3.9 20:21:47 10° SW 20:26:29 60° NW 20:31:21 10° NNE
Envisat 3.2 20:23:28 10° S 20:28:32 76° WSW 20:33:38 10° NNW
Meteor 2-15 4.4 20:22:38 10° N 20:28:49 80° E 20:34:56 10° S
ATLAS CENTAUR R/B 1.7 20:27:57 10° S 20:31:16 34° ESE 20:34:42 10° NE
Cosmos 1340 2.7 20:28:08 10° S 20:31:56 87° WNW 20:35:44 10° N
Cosmos 2341 Rocket 4.1 20:31:37 10° SSE 20:37:48 56° E 20:43:58 10° NNE
Meteor 2-21 4.5 20:32:28 10° S 20:38:36 86° E 20:44:48 10° N
Cosmos 962 Rocket 4.5 20:36:46 10° S 20:42:46 64° E 20:48:51 10° NNE
Timation 1 Rocket 4.4 20:37:11 10° NNW 20:43:11 88° WSW 20:49:09 10° SSE
Cosmos 1825 3.4 20:41:52 10° NNE 20:45:01 24° ENE 20:46:31 19° ESE
NOSS 0 Rocket 4.0 20:45:06 10° S 20:51:04 54° ESE 20:57:06 10° NE
USA 186 2.3 20:49:44 10° S 20:51:51 38° W 20:54:00 10° NNW
Cosmos 1666 Rocket 3.9 20:47:33 10° NNW 20:52:02 69° W 20:56:27 10° S
SL-24 R/B - RUBIN 2 4.1 20:47:54 10° NW 20:52:08 54° WSW 20:56:09 11° SSE
Cosmos 1295 Rocket 4.5 20:46:02 10° S 20:52:19 71° E 20:58:36 10° NNE
Thor Agena Rocket 4.0 20:48:37 10° N 20:53:49 69° WNW 20:59:03 10° SSW
BREEZE-M DEB (TANK) 2.4 20:50:04 10° WNW 20:54:30 67° NNE 20:55:38 28° ESE
Cosmos 1939 Rocket 3.1 20:51:24 10° S 20:55:14 67° WSW 20:59:09 10° NNW
SJ-11-01 4.2 20:52:09 10° SSE 20:56:49 86° ENE 21:01:31 10° NNW
Cosmos 2366 rocket 4.5 20:51:34 11° SSE 20:57:04 38° E 21:02:47 10° NNE
Resurs 1-3 3.8 20:53:01 10° S 20:57:23 75° WSW 21:01:48 10° NNW
Cosmos 1933 Rocket 3.9 20:53:50 10° N 20:58:04 46° ENE 21:00:35 22° SE
SL-16 R/B 3.4 20:59:34 20° ESE 20:59:56 20° E 21:03:53 10° NE
BREEZE-M DEB (TANK) 3.2 21:00:04 10° NW 21:03:29 33° NNE 21:04:23 24° ENE
Cosmos 220 Rocket 3.9 20:59:28 10° NNW 21:03:50 84° ENE 21:06:39 21° SSE
Meteor 2-3 Rocket 3.7 20:58:14 10° N 21:03:51 88° W 21:09:29 10° S
Cosmos 1869 4.0 21:02:49 26° SE 21:04:09 33° E 21:07:47 10° NNE
Sich 1 4.1 21:00:19 10° NNW 21:04:23 43° W 21:08:25 10° SSW
Cosmos 1151 Rocket 2.9 21:01:44 10° S 21:05:56 62° E 21:10:09 10° NNE
SL-8 Rocket 4.0 21:00:26 10° S 21:06:37 62° E 21:12:48 10° NNE
GEOS 3 Rocket 4.4 21:03:03 10° ENE 21:07:35 28° ESE 21:12:00 10° S
ARGOS 3.6 21:07:10 24° SE 21:09:56 43° ENE 21:14:58 10° N
Spot 2 Rocket 3.6 21:06:33 11° S 21:11:29 78° WSW 21:16:36 10° NNW
Lacrosse 5 4.3 21:13:58 10° NNW 21:16:43 14° N 21:19:27 10° NE
ATLAS 2AS CENTAUR R/B 3.0 21:09:46 10° NW 21:17:43 84° WSW 21:22:42 23° SSE
SPOT 5 4.2 21:19:19 20° ENE 21:19:54 21° ENE 21:23:14 10° NNE
CZ-4B DEB 4.4 21:20:15 38° SSE 21:21:28 87° ENE 21:24:59 10° NNW
Cosmos 1980 3.6 21:20:39 10° SSW 21:26:21 89° ESE 21:32:04 10° NNE
Cosmos 2297 4.5 21:25:04 10° N 21:30:20 37° ENE 21:32:07 30° E
Meteor 2-10 Rocket 3.8 21:27:11 25° SSE 21:30:21 55° E 21:36:02 10° NNE
Cosmos 1455 4.0 21:29:36 10° SW 21:33:02 31° WNW 21:36:31 10° NNW
ATLAS 2A CENTAUR R/B 4.5 21:19:53 10° SW 21:33:34 27° S 21:36:36 24° SSE
Cosmos 1408 2.8 21:31:19 10° NNW 21:34:57 66° W 21:36:08 39° SSW
Cosmos 2333 Rocket 3.1 21:29:41 10° SW 21:35:10 50° WNW 21:40:40 10° NNE
Cosmos 1515 Rocket 4.2 21:31:05 10° SSW 21:35:28 58° W 21:39:55 10° N
Cosmos 2228 Rocket 3.6 21:31:19 10° SSW 21:35:38 57° W 21:39:59 10° N
Helios 1A 3.8 21:35:50 33° ENE 21:35:55 33° ENE 21:39:41 10° N
Cosmos 2369 Rocket 4.4 21:36:26 10° NNE 21:38:07 11° NE 21:39:48 10° ENE
Cosmos 864 Rocket 4.3 21:33:34 16° S 21:38:33 78° E 21:44:42 10° N
SPOT 1/Viking Rocket 4.3 21:40:49 33° E 21:41:36 34° ENE 21:46:17 10° N
USA 81 4.1 21:36:56 10° N 21:42:09 56° E 21:43:20 45° SE
NOSS 3-4 (A) 4.1 21:41:07 10° NNW 21:48:02 58° NE 21:51:01 36° ESE
NOSS 3-4 (C) 4.1 21:41:13 10° NNW 21:48:08 57° NE 21:51:06 36° ESE
SL-8 R/B 3.6 21:43:22 10° WSW 21:48:10 86° NNW 21:50:54 26° ENE
H-2A R/B 1.9 21:48:27 50° SE 21:49:46 75° ENE 21:54:45 10° N
Cosmos 1862 3.8 21:46:20 10° N 21:49:46 45° NE 21:49:46 45° NE
Cosmos 407 Rocket 3.5 21:45:25 10° NNW 21:50:30 61° ENE 21:51:21 53° ESE
ERS-1 Rocket 2.9 21:50:13 53° SE 21:51:18 71° ENE 21:56:19 10° N
Cosmos 2219 Rocket 4.0 21:48:42 10° WSW 21:53:42 31° NW 21:58:42 10° N
Cosmos 2237 Rocket 2.7 21:48:30 10° SW 21:54:02 59° WNW 21:59:37 10° NNE
Genesis I 4.5 21:50:59 10° NW 21:54:42 34° WSW 21:55:26 31° SW
MetOp-A 4.2 21:53:47 39° S 21:55:51 76° WSW 22:01:14 10° NNW
Cosmos 1371 Rocket 4.2 21:52:49 10° SSW 21:58:07 74° WNW 22:03:30 10° NNE
Resurs 01 Rocket 4.1 21:55:22 10° SW 21:58:22 18° W 22:01:22 10° NW
USA 267 3.2 21:53:08 10° NE 21:59:32 54° SE 22:05:53 10° SSW
Cosmos 405 Rocket 3.8 22:03:13 35° NNE 22:03:13 35° NNE 22:05:41 10° NNE
Cosmos 2278 Rocket 2.9 21:57:44 10° NW 22:03:12 48° WSW 22:05:28 31° SSW
SL-08 RB Rocket 3.6 22:02:53 66° SSW 22:03:25 78° W 22:07:54 10° NNW
Cosmos 676 Rocket 4.1 22:04:18 10° NNW 22:09:29 56° ENE 22:09:38 56° ENE
ATLAS 5 CENTAUR R/B 4.3 22:06:10 10° N 22:10:08 18° NE 22:12:40 15° ENE
ATLAS CENTAUR R/B 3.8 22:07:28 10° W 22:10:19 21° NW 22:13:18 10° N
Cosmos 1727 Rocket 4.1 22:07:54 10° NNW 22:14:02 69° W 22:16:20 40° SSW
Cosmos 1821 Rocket 4.0 22:17:40 57° ESE 22:18:05 58° E 22:24:16 10° NNE
Cosmos 2056 Rocket 4.0 22:15:53 19° SW 22:19:45 61° WNW 22:25:08 10° NNE
Cosmos 1825 4.4 22:17:34 10° NW 22:20:25 21° W 22:21:24 19° WSW
Cosmos 1452 Rocket 4.3 22:22:17 39° NE 22:22:17 39° NE 22:25:51 10° NNE
Landsat 7 4.1 22:25:42 59° NNE 22:25:42 59° NNE 22:29:48 10° N
USA 234 4.2 22:30:26 27° ENE 22:33:11 39° NNE 22:39:08 10° NW
Cosmos 2123 Rocket 4.3 22:28:46 10° N 22:34:41 49° ENE 22:34:41 49° ENE
Terra 2.5 22:43:59 48° NNE 22:43:59 48° NNE 22:47:32 10° N
SL-16 R/B 2.7 22:41:17 35° SW 22:43:31 58° WNW 22:49:07 10° NNE
GEOS 3 Rocket 4.3 22:40:34 10° NNE 22:45:46 53° NW 22:50:53 10° WSW
Cosmos 1140 Rocket 3.7 22:42:18 10° NNW 22:46:47 65° NW 22:46:47 65° NW
Cosmos 1535 Rocket 4.4 22:49:13 83° E 22:49:13 83° E 22:55:36 10° N
CZ-2C R/B 4.0 22:55:28 36° NNE 22:55:28 36° NNE 22:58:34 10° N
Cosmos 1954 Rocket 4.4 22:49:05 10° NNW 22:53:30 59° WNW 22:53:30 59° WNW
CZ-4C R/B 3.6 22:58:25 27° NE 22:58:25 27° NE 23:01:09 10° NE
Cosmos 1943 Rocket 3.6 22:50:42 10° N 22:54:52 27° NE 22:54:52 27° NE
Helios 1B rocket 4.0 22:53:25 10° N 22:56:07 33° NNW 22:56:07 33° NNW
SPOT 5 4.0 22:58:33 37° WNW 22:58:33 37° WNW 23:02:00 10° NNW
Lacrosse 5 3.4 22:56:47 10° NNW 23:01:09 29° NNE 23:01:09 29° NNE
Cosmos 1605 Rocket 4.3 23:09:19 59° NE 23:09:19 59° NE 23:14:38 10° NNE
Cosmos 2344 3.7 23:08:24 28° SW 23:12:52 75° NW 23:21:20 10° NNE
Cosmos 2369 Rocket 2.9 23:17:44 10° NNW 23:22:03 48° N 23:22:03 48° N
BREEZE M DEB (TANK) 4.4 23:13:52 10° W 23:24:30 40° NNW 23:25:52 33° NNE
H-2A R/B 4.5 23:29:05 12° W 23:29:41 12° W 23:31:44 10° WNW
BREEZE-M DEB (TANK) 4.1 23:09:41 10° WNW 23:31:44 78° SW 23:31:53 77° SSW
CZ-2C R/B 3.7 23:36:19 10° NNE 23:39:42 41° N 23:39:42 41° N
USA 267 4.0 23:36:13 10° NE 23:42:28 50° NNW 23:48:43 10° WSW
